This demonstration page uses our WeatherBlox Daily Observations layout. Learn more.

Left ArrowRight Arrow

Hourly Observations for June 2, 2021

Temp ( °F °C ) Dew Point ( °F °C ) Humidity (%) Winds ( mph kmh ) Pressure ( in mb ) Visibility ( mi km ) Precip ( " mm )
12:59 am 00:59 Mostly Cloudy 62 16.7 56 13.3 80 80 S 3 6 30.25 1024 10 16 0.00 0.00
1:59 am 01:59 Mostly Cloudy 62 16.7 57 13.9 84 84 SSE 6 9 30.24 1024 10 16 0.00 0.00
2:59 am 02:59 Mostly Cloudy 62 16.7 57 13.9 84 84 S 5 7 30.23 1024 10 16 0.00 0.00
3:59 am 03:59 Mostly Cloudy 63 17.2 58 14.4 84 84 SSE 6 9 30.22 1024 10 16 0.00 0.00
4:59 am 04:59 Mostly Cloudy 63 17.2 58 14.4 84 84 SSE 7 11 30.22 1023 10 16 0.00 0.00
5:59 am 05:59 Mostly Cloudy 64 17.8 59 15 84 84 SSE 7 11 30.22 1023 10 16 0.00 0.00
6:59 am 06:59 Cloudy 66 18.9 61 16.1 84 84 Calm 30.23 1024 10 16 0.00 0.00
7:59 am 07:59 Cloudy 69 20.6 62 16.7 78 78 Calm 30.24 1024 10 16 0.00 0.00
8:59 am 08:59 Cloudy 71 21.7 62 16.7 73 73 Calm 30.24 1024 10 16 0.00 0.00
9:59 am 09:59 Cloudy 74 23.3 60 15.6 62 62 ESE 6 9 30.24 1024 10 16 0.00 0.00
10:59 am 10:59 Mostly Cloudy 77 25 59 15 54 54 SE 9 15 30.23 1024 10 16 0.00 0.00
11:59 am 11:59 Mostly Cloudy 78 25.6 58 14.4 50 50 E 10 17 30.22 1023 10 16 0.00 0.00
12:59 pm 12:59 Mostly Cloudy 79 26.1 59 15 50 50 SE 8 13 30.21 1023 10 16 0.00 0.00
1:59 pm 13:59 Mostly Cloudy 78 25.6 58 14.4 50 50 E 12 19 30.19 1022 10 16 0.00 0.00
2:59 pm 14:59 Mostly Cloudy 79 26.1 57 13.9 47 47 ESE 8 13 30.18 1022 10 16 0.00 0.00
3:59 pm 15:59 Mostly Cloudy 78 25.6 63 17.2 60 60 ESE 10 17 30.16 1022 10 16 0.00 0.00
4:59 pm 16:59 Cloudy with Light Rain 73 22.8 65 18.3 76 76 SE 8 13 30.17 1022 7 11 0.00 0.00
5:59 pm 17:59 Cloudy 70 21.1 64 17.8 82 82 ESE 8 13 30.17 1022 10 16 0.01 0.25
6:59 pm 18:59 Cloudy with Light Rain 68 20 62 16.7 81 81 SE 6 9 30.17 1022 6 10 0.01 0.25
7:13 pm 19:13 Cloudy 68 20 63 17.2 84 84 E 6 9 30.17 1022 9 14 0.00 0.00
7:59 pm 19:59 Cloudy 67 19.4 62 16.7 84 84 E 6 9 30.17 1022 10 16 0.00 0.00
8:59 pm 20:59 Cloudy with Light Rain 67 19.4 63 17.2 87 87 ESE 6 9 30.16 1021 10 16 0.02 0.51
9:59 pm 21:59 Mostly Cloudy 67 19.4 64 17.8 91 91 Calm 30.16 1021 10 16 0.01 0.25
10:06 pm 22:06 Mostly Cloudy 67 19.4 64 17.8 91 91 ESE 3 6 30.16 1021 10 16 0.00 0.00
10:59 pm 22:59 Cloudy with Light Rain 68 20 65 18.3 90 90 SE 5 7 30.16 1021 7 11 0.01 0.25
11:59 pm 23:59 Mostly Cloudy 69 20.6 66 18.9 90 90 SSE 3 6 30.14 1021 10 16 0.03 0.76

Powered by AerisWeather